Погода Черновцы

Поиск расширенной информации на нашем сайте:

Полезная информация:

Новости сайта



02.01.2020
Опубликован Долгосрочный прогноз погоды по городам России и ближнего зарубежья на январь 2020 года.
Карты: Прогноз на январь и февраль 2020 года, Сравнение прогнозируемой аномалии приземной температуры воздуха на январь 2020 года по разным моделям.




Погода Черновцы - сегодня

Время (UTC), дата Ветер
(°,м/с) 
Видим.   Явления Облачность Т
(°С)
Тd
(°С)
f(%) Тe
(°С)
Pmin
(гПа)
dP
(гПа)
Po
(мм)
O2
(г/м3)
Тmin Tmax R s Состояние
почвы
21 15.01.22 310 (СЗ) 50000 м    10/10 1300 м 
[Sc]
+0.6 -6.3 60 -3  1025.2  0.9  746  300           
00 16.01.22 300 (СЗ) 45000 м    10/10 1200 м 
[Sc]
+0.2 -5.6 65 -3  1026.2  746  301           
03 16.01.22 300 (СЗ) 20000 м    10/10 1170 м 
[Sc]
+0 -5.4 67 -2  1026  -0.3  746  301           
06 16.01.22 300 (СЗ) 22000 м    8/8 1500 м 
[Sc]
-0.5 -4.7 73 -2  1026  746  302  -0.5         
09 16.01.22 320 (СЗ) 35000 м    5/0 верхняя 
[Ci fib]
+0.3 -5.3 66 -2  1026  0.1  746  301           
12 16.01.22 320 (СЗ) 45000 м    8/0 средняя 
[Ac trans]
+2.7 -7.8 46 +2  1023.3  -2.4  745  298           
15 16.01.22 130 (ЮВ) 50000 м    8/0 верхняя 
[Cc]
+1.5 -7.5 51 +1  1021.4  -2  743  299           
18 16.01.22 120 (ЮВ) 12000 м    3/0 верхняя 
[Cc]
-1.3 -7.6 62 -1  1019.9  -1.7  742  301    +3.4       
21 16.01.22 тихо ()   15000 м    8/0 верхняя 
[Ci fib]
-1.6 -7.5 64 -2  1018.1  -1.8  740  301           
00 17.01.22 тихо ()   15000 м    9/0 верхняя 
[Ci fib]
-2.2 -6.6 72 -2  1016.6  -1.5  739  301           
03 17.01.22 310 (СЗ) 18000 м    8/0 средняя 
[Ac trans]
+0.5 -7.3 56 -1  1014.8  -1.5  738  298           
06 17.01.22 260 (З) 15000 м    9/9 1200 м 
[Sc]
-1.1 -6.4 67 -1  1013.4  -1.5  737  299  -2.5         
09 17.01.22 250 (З) 50000 м    9/9 1500 м 
[Sc]
+4.6 -4.4 52 +2  1010  -2.7  735  292           
12 17.01.22 250 (З) 50000 м    9/9 1500 м 
[Sc]
+5.5 -5.5 45 +3  1005.7  -4.1  732  290           
18 17.01.22 310 (СЗ) 50000 м  {ливн. осадки}  8/8 1500 м 
[Sc]
+0.2 -2.7 81 -4  1008.9  5.2  734  296    +6.3  0.0     
21 17.01.22 300 (СЗ) 4300 м  слаб. ливневой снег  10/10 240 м кучево-дожд. 
[Cb cap]
-0.1 -3.5 78 -5  1011.1  2.1  735  297           
00 18.01.22 300 (СЗ) 12-19  50000 м  {ливн. осадки}  10/10 1110 м 
[Sc]
+0.6 -4.8 67 -5  1013.4  2.3  737  297           
03 18.01.22 300 (СЗ) 50000 м    8/8 1020 м 
[Sc]
-0.3 -5.9 66 -5  1017.8  4.2  740  299           
06 18.01.22 300 (СЗ) 50000 м    8/8 1230 м 
[Sc]
-0.4 -6.2 65 -5  1020.5  2.6  742  300  -0.5    0.0     
09 18.01.22 300 (СЗ) 50000 м  в посл. час ливневой снег  8/8 800 м 
[Sc]
+0 -5.2 68 -5  1021.4  0.9  743  300           
12 18.01.22 300 (СЗ) 10{20}  2800 м  слаб. ливневой снег  10/10 660 м кучево-дожд. 
[Cb cap]
-0.3 -3.3 80 -5  1022.4  0.9  744  300           
15 18.01.22 300 (СЗ) 50000 м  {ливн. осадки}  9/9 1000 м кучево-дожд. 
[Cb calv]
+0.5 -5.9 62 -4  1025.5  3.1  746  301           
18 18.01.22 300 (СЗ) 50000 м  {ливн. осадки}  8/8 1000 м 
[Sc]
-0.3 -5.1 70 -5  1028.5  2.8  748  302    +0.8  0.0     
21 18.01.22 310 (СЗ) 50000 м    ясно 
-1.1 -5.5 72 -6  1030.6  750  304           
00 19.01.22 300 (СЗ) 35000 м    ясно 
-1.7 -4.9 79 -5  1030.9  0.2  750  305           
Время (UTC), дата Ветер
(°,м/с) 
Видим.   Явления Облачность Т
(°С)
Тd
(°С)
f(%) Тe
(°С)
Pmin
(гПа)
dP
(гПа)
Po
(мм)
O2
(г/м3)
Тmin Tmax R s Состояние
почвы

Для получения пояснительной информации подведите курсор к названию столбца.

ПОГОДА Черновцы - архив

Всё, что Вы хотите узнать о погоде Черновцы - удобно и подробно!

Выберите нужную дату (начиная с 1 января 2019* года) и нажмите кнопку "Найти".
Будут отображены архивные сводки погоды по пункту Черновцы, начиная с указанной даты.


Отображать данные в формате CSV (для использования в таблицах Excel)


Внимание! Наш архив погоды предназначен исключительно для личного некоммерческого использования в познавательных целях. Если Вам необходимы официальные справки о состоянии погоды (для производственных, юридических, коммерческих и т.п. целей), обращайтесь в органы Росгидромета.

*Примечание: данная дата относится к архиву по метеостанциям СССР (Россия, СНГ, Балтия).
Архив по метеостанциям Зарубежной Европы и Азии (кроме Китая) хранится 10 дней, по другим регионам земного шара (Китай, Африка, Америка, Австралия, Океания) - 1 день.

Черновцы - район местоположения метеостанции


Название, широта, долгота, высота метеостанции:
Черновцы 48.4°ш. 25.9°д. 246 м над ур. моря [Украина]

Дополнительная информация

В oтличие oт бoльшинства пoгoдных сайтoв мы публикуем пoдрoбную метеoинфoрмацию в детальнoм прoфессиoнальнoм фoрмате.

Характеристики температуры и влажнoсти вoздуха измеряются на высoте 2 м в тени вдали oт зданий и деревьев.
Скoрoсть ветра измеряется на высoте 10 м (на урoвне рoста челoвека скoрoсть ветра ниже в 1.5-2 раза). Если метеoстанция нахoдится в гoрoде или в лесу, тo скoрoсть ветра занижена на 2-4 м/с пo сравнению с oткрытым местoм. Скoрoсть ветра над акватoриями крупных рек и oзёр, а также на вершинах хoлмoв на 2-5 м/с выше, чем в oбычных услoвиях.
Атмoсфернoе давление в разных тoчках местнoсти мoжет значительнo oтличаться oт давления на метеoстанции, в зависимoсти oт услoвий рельефа (при пoдъёме на 10 м давление пoнижается примернo на 1 мм рт.ст.).